Location: Dompnac
(44.5644°N, 4.1026°E)
Time: 18:03:51
(UTC+00:00)

USA 234 - Pass Details

Date: 21 January 2021
Orbit: 1100 x 1107 km, 123.0° (Epoch: 01 March)

Event Time Altitude Azimuth Distance (km) Brightness Sun altitude
Exits shadow 19:43:06 49° 355° (N) 1,400 3.7 -32.8°
Drops below altitude 10° 19:48:19 10° 314° (NW) 2,967 6.1 -33.7°
Sets 19:50:51 0° 310° (NW) 3,927 6.9 -34.1°
